Regional Weather Roundup
Issued by NWS

Home | Current Version | Previous Version | Graphics & Text | Print | Product List | Glossary On
Versions: 1 2 3 4 5 6 7 8 9 10 11 12 13 14 15 16 17 18 19 20 21 22 23 24 25 26 27 28 29 30 31 32 33 34 35 36 37 38 39 40 41 42 43 44 45 46 47 48 49 50
000
ASUS43 KLMK 191610
RWRKY
KENTUCKY REGIONAL WEATHER ROUNDUP
NATIONAL WEATHER SERVICE LOUISVILLE KY
1100 AM EST FRI DEC 19 2014

NOTE "FAIR" INDICATES FEW OR NO CLOUDS BELOW 12,000 FEET
WITH NO SIGNIFICANT WEATHER AND/OR OBSTRUCTIONS TO VISIBILITY.

KYZ001>023-026-027-061>063-070>075-191700-
WESTERN AND SOUTH CENTRAL KENTUCKY

CITY           SKY/WX    TMP DP  RH WIND       PRES   REMARKS
PADUCAH        CLOUDY    35  28  75 E8        30.30F WCI  29
HENDERSON      PTSUNNY   34  25  69 NE3       30.33R
OWENSBORO      PTSUNNY   33  26  76 NE9       30.32S WCI  25
HOPKINSVILLE   CLOUDY    35  28  78 VRB5      30.30S WCI  31
BOWLING GREEN  CLOUDY    35  27  72 E5        30.31R WCI  31
GLASGOW        PTSUNNY   34  26  74 E6        30.29S WCI  28
$$

KYZ024-025-028>034-038-045-046-053-191700-
NORTH CENTRAL KENTUCKY

CITY           SKY/WX    TMP DP  RH WIND       PRES   REMARKS
LOUISVILLE/SDF CLOUDY    32  24  72 NE6       30.31S WCI  26
LOUISVILLE/LOU PTSUNNY   31  23  72 VRB3      30.32S
FORT KNOX      MOSUNNY   31  23  72 NE6       30.29S WCI  25
$$

KYZ035>037-039>044-047>052-055>060-089>105-191700-
NORTHEAST KENTUCKY

CITY           SKY/WX    TMP DP  RH WIND       PRES   REMARKS
LEXINGTON      CLOUDY    30  23  75 N7        30.28S WCI  23
COVINGTON      CLOUDY    29  18  63 NE6       30.29S WCI  23
FRANKFORT      PTSUNNY   29  22  75 NE7       30.29S WCI  22
$$

KYZ054-064>069-076>088-106>120-191700-
SOUTHEAST KENTUCKY

CITY           SKY/WX    TMP DP  RH WIND       PRES   REMARKS
JACKSON        CLOUDY    32  23  69 CALM      30.24F
LONDON         SUNNY     35  25  66 N5        30.25R WCI  31
SOMERSET       SUNNY     32  27  80 NE5       30.27F WCI  27
MIDDLESBORO    SUNNY     38  27  62 NW3       30.24S
MONTICELLO     MOSUNNY   35  28  76 CALM      30.29R HAZE
$$




USA.gov is the U.S. government's official web portal to all federal, state and local government web resources and services.